Location: Jetmore Oil Field
(38.1181°N, 99.9337°W)
Time: 06:29:32
(UTC+00:00)

STARLINK-2753 - Pass Details

Date: 24 June 2021
Orbit: 345 x 354 km, 53.0° (Epoch: 24 July)

Event Time Altitude Azimuth Distance (km) Brightness Sun altitude
Exits shadow 10:42:41 - 268° (W) 1,729 5.7 -6.6°
Reaches altitude 10° 10:43:50 10° 280° (W) 1,342 5.2 -6.4°
Maximum altitude 10:46:07 19° 329° (NNW) 927 4.9 -6.0°
Drops below altitude 10° 10:48:24 10° 19° (NNE) 1,345 6.6 -5.7°
Sets 10:50:47 0° 38° (NE) 2,192 8.5 -5.3°
